Showing default

YINHE-1, 45024

Orbit data source: Space-Track

YINHE-1, 45024 is a payload satellite owned by Yinhe (CN) in LEO that was launched on Thu, 16 Jan 2020 UTC via a KUAIZHOU-1A launch vehicle from the Jiuquan Satellite Launch Center, China (JSC). Payloads include a variety of satellites, spacecraft, and rockets equipped with specific instruments for various scientific and technological missions. These include communications satellites like Starlink; space stations such as the ISS; scientific satellites like the Hubble; Earth observation satellites from companies like Planet Labs, Umbra, and HawkEye 360; GPS; miniature CubeSats for education and research; and military/defense satellites.

Loading next visibility...
YINHE-1 details
Identifier
45024, 2020-004A
Orbit
LEO
Last TLE update8 hours ago
Origin
Flag of CNYinhe (CN / PRC)
ManufacturerYinhe
MissionOperational Commercial Communications
Bus & MotorYH, Unknown motor
Mass227 kg wet, ~200 kg dry
Launch date (UTC)
2020-01-16 (5 years ago)
Launch vehicle
KUAIZHOU-1A
Launch site
Jiuquan Satellite Launch Center, China (JSC)
Object type
Payload
Rocket body
Debris
Shape & HBRBox + 1 Pan, Unknown HBR
Radar Cross Section3.313 m², Large (>1 m²)

Expand to show TLE details & history

TLE from 8 hours ago
0 YINHE-1
1 45024U 20004A   24361.12467998  .00001847  00000-0  25247-3 0  9996
2 45024  86.3942 357.1179 0016208  85.5314 274.7757 14.77930900266435
Epoch: 2024-12-26T02:59Z
Definitive object data (Epoch: 2024-12-26T02:59:32.35Z)
Latitude-0.00003°
Longitude-142.87547°
Altitude638.047 km
Speed7.54 km/s
True Right ascension23h 48m 28s
True Declination0° 00' 00"
Sunlit
Object was in daylight at TLE epoch
Visualization TLE readout
Latitude-45.54381°
Longitude40.64646°
Altitude662.389 km
Speed7.52 km/s
Apparent Right ascension16h 53m 56s
Apparent Declination-73° 00' 50"
Sunlit
Object is in daylight
Visualization observer readout
Local Sidereal Time09:51:39
Azimuth157.613° S
Elevation-42.363°
Doppler factor1
Orbital elements
Apogee altitude644.129 km
Perigee altitude621.403 km
Semi-major axis7,010.903 km
Eccentricity0.0016208
Inclination86.3942°
RAAN357.1179°
Arg. of periapsis85.5314°
True anomaly274.59058°
Mean anomaly274.7757°
Eccentric anomaly274.68315°
Mean motion3.69728 °/min
BSTAR0.00025247
Orbital period97.37 mins
Loading maneuver chart data...
Loading historical data...
Loading historical data...
Loading historical data...
Loading historical data...
Loading historical data...
Loading historical data...
Loading historical data...
Other satellites on launch #4 in the year 2020 (2020-01-16 UTC)

YINHE-1 Visibility forecast

Observer location: undefined°, undefined

Span
Click to sort rows by Start time (UTC) header in descending order
Start Az.
Max El. time (UTC)
Max El. Az.
Max El.
End time (UTC)
End Az.
7 mins2024-12-26 11:41:27.430Z17.903° NNE2024-12-26 11:44:27.430Z74.305° E32.969°2024-12-26 11:48:27.430Z152.185° SSE
6 mins2024-12-27 00:15:27.430Z157.241° SSE2024-12-27 00:17:27.430Z108.779° ESE39.102°2024-12-27 00:21:27.430Z13.291° NNE
|